User: anonymous   Login
Location: The Saddle
(36.8333°N, 80.3417°W)
Time: 07:22:01
(UTC-05:00)
Language:

Transit 2A Rocket - Orbit

View from above orbital plane
View from above orbital plane
View from above satellite
View from above satellite

Ground track
Ground track

The orbit data is extracted from the following two-line orbital elements,

1 00047U 60007C   24064.56701810  .00000447  00000-0  12315-3 0  9998
2 00047  66.6648 126.8282 0220803  28.8681 332.4430 14.43322342330267
Epoch (UTC): 04 March 2024 13:36:30
Eccentricity: 0.0220803
inclination: 66.6648°
perigee height: 590 km
apogee height: 905 km
right ascension of ascending node: 126.8282°
argument of perigee: 28.8681°
revolutions per day: 14.43322342
mean anomaly at epoch: 332.4430°
orbit number at epoch: 33026

The dashed part of the orbit path shows where the satellite is in the earth's shadow,  

DLR